Regional Weather Roundup
Issued by NWS

Home | Current Version | Previous Version | Text Only | Print | Product List | Glossary Off
Versions: 1 2 3 4 5 6 7 8 9 10 11 12 13 14 15 16 17 18 19 20 21 22 23 24 25 26 27 28 29 30 31 32 33 34 35 36 37 38 39 40 41 42 43 44 45 46

000
ASUS45 KBOI 250510
RWRID
WEATHER ROUNDUP FOR IDAHO
NATIONAL WEATHER SERVICE BOISE ID
1000 PM MST WED DEC 24 2014

NOTE: "FAIR" INDICATES FEW OR NO CLOUDS BELOW 12000 FEET
WITH NO SIGNIFICANT WEATHER AND/OR OBSTRUCTIONS TO VISIBILITY

IDZ012-014-250600-
SOUTHWEST IDAHO


CITY           SKY/WX    TMP DP  RH WIND       PRES   REMARKS
BOISE          CLOUDY    34  30  85 NW26G38   29.59R WCI  21
CALDWELL       CLOUDY    36  25  64 SW28G38   29.66R WCI  23
MOUNTAIN HOME  LGT RAIN  33  29  86 NW39G47   29.52R WCI  17
$$

IDZ016-017-250600-
SOUTHCENTRAL IDAHO


CITY           SKY/WX    TMP DP  RH WIND       PRES   REMARKS
JEROME         LGT SNOW  29  28  96 SW26G40   29.41S VSB 1   WCI  14
TWIN FALLS     LGT SNOW  32  27  81 SW31G45   29.43S WCI  17
$$

IDZ019>023-250600-
SOUTHEAST IDAHO


CITY           SKY/WX    TMP DP  RH WIND       PRES   REMARKS
IDAHO FALLS    LGT SNOW  32  30  92 N3        29.39F FOG
POCATELLO      LGT SNOW  36  30  79 S15G25    29.37F WCI  27
REXBURG        LGT SNOW  29  29 100 E6        29.40F FOG     WCI  23
$$

IDZ006-010-011-018-031-032-250600-
CENTRAL IDAHO MOUNTAINS


CITY           SKY/WX    TMP DP  RH WIND       PRES   REMARKS
MCCALL         CLOUDY    27  22  81 NW3       29.55F
HAILEY         LGT SNOW  28  28 100 CALM      29.37F
STANLEY          N/A     27  19  72 NW15G25   29.42R WCI  15
SALMON         CLOUDY    30  28  93 CALM      29.49R
CHALLIS        CLOUDY    30  25  81 NW3       29.44R
$$

IDZ002-004-006-007-026-250600-
NORTHERN IDAHO


CITY           SKY/WX    TMP DP  RH WIND       PRES   REMARKS
LEWISTON       CLOUDY    40  34  79 NW13G21   29.76S WCI  32
LOWELL           N/A     36  34  92 CALM      29.74R
COEUR D`ALENE  MOCLDY    30  30 100 N3        29.71R
MULLAN PASS    SNOW      25  21  85 NW8       29.55R VSB 1/2 WCI  16
$$


USA.gov is the U.S. government's official web portal to all federal, state and local government web resources and services.